HS5NMF Weather Reports


Display with metric or nautical units.
time (UTC)temp
F
wind
direction
speed
MPH
gust
MPH
rain 1hr
in
rain 24hr
in
rain mn
in
humidity
%
barometer
mb
20260505014149 89 0 0.0 0.0 0.00 0.00 0.00 69 980.0
20260505013626 0 0 0.0 0.0 0.00 0.00 0.00 69 980.0
20260505013058 89 0 0.0 0.0 0.00 0.00 0.00 70 980.0
20260505012546 89 0 0.0 0.0 0.00 0.00 0.00
20260505012536 89 0 0.0 0.0 0.00 0.00 0.00 71 980.0
20260505012022 89 0 0.0 0.0 0.00 0.00 0.00 72 980.0
20260505012012 89 0 0.0 0.0 0.00 0.00 0.00 72 980.0
20260505011447 88 0 0.0 0.0 0.00 0.00 0.00 75 980.0
20260505010925 88 0 0.0 0.0 0.00 0.00 0.00 77 980.0
20260505010358 87 0 0.0 0.0 0.00 0.00 0.00
20260505005835 85 0 0.0 0.0 0.00 0.00 0.00 83 98.0
20260505005311 85 0 0.0 0.0 0.00 0.00 0.00 84 980.0
20260505004744 84 0 0.0 0.0 0.00 0.00 0.00 86 980.0
20260505004219 83 0 0.0 0.0 0.00 0.00 0.00 89 980.0
20260505003649 82 0 0.0 0.0 0.00 0.00 0.00 92 980.0
20260505003133 82 0 0.0 0.0 0.00 0.00 0.00 93 980.0
20260505003125 82 0 0.0 0.0 0.00 0.00 0.00 93 980.0
20260505002553 82 0 0.0 0.0 0.00 0.00 0.00 92 980.0
20260505002031 81 0 0.0 0.0 0.00 0.00 0.00 96 980.0
20260505001505 81 0 0.0 0.0 0.00 0.00 0.00 95 980.0
20260505000942 80 0 0.0 0.0 0.00 0.00 0.00 98 980.0
20260505000420 81 0 0.0 0.0 0.00 0.00 0.00 94 979.0
20260505000417 81 0 0.0 0.0 0.00 0.00 0.00 94 979.0
20260504235852 81 0 0.0 0.0 0.00 0.00 0.00 93 979.0
20260504235323 82 0 0.0 0.0 0.00 0.00 0.00 92 979.0
20260504234800 81 0 0.0 0.0 0.00 0.00 0.00 92 979.0
20260504234237 82 0 0.0 0.0 0.00 0.00 0.00 90 979.0
20260504233713 80 0 0.0 0.0 0.00 0.00 0.00 96 979.0
20260504233150 82 0 0.0 0.0 0.00 0.00 0.00 91 979.0
20260504232626 82 0 0.0 0.0 0.00 0.00 0.00 90 979.0
20260504232059 81 0 0.0 0.0 0.00 0.00 0.00 93 979.0
20260504231536 80 0 0.0 0.0 0.00 0.00 0.00 95 978.0
20260504231010 0 0 0.0 0.0 0.00 0.00 0.00
20260504230446 81 0 0.0 0.0 0.00 0.00 0.00 94 978.0
20260504225915 81 0 0.0 0.0 0.00 0.00 0.00 94 978.0
20260504225349 81 0 0.0 0.0 0.00 0.00 0.00 90 978.0
20260504224832 82 0 0.0 0.0 0.00 0.00 0.00 90 978.0
20260504224823 82 0 0.0 0.0 0.00 0.00 0.00 90 978.0
20260504224256 82 0 0.0 0.0 0.00 0.00 0.00 90
20260504223730 81 0 0.0 0.0 0.00 0.00 0.00 92 978.0
20260504223208 80 0 0.0 0.0 0.00 0.00 0.00 98 978.0
20260504222641 79 0 0.0 0.0 0.00 0.00 0.00 99 978.0
20260504222114 80 0 0.0 0.0 0.00 0.00 0.00 97 978.0
20260504221551 81 0 0.0 0.0 0.00 0.00 0.00 95 978.0
20260504221025 80 0 0.0 0.0 0.00 0.00 0.00 97 978.0
20260504220505 80 0 0.0 0.0 0.00 0.00 0.00 98 0.9
20260504220458 80 0 0.0 0.0 0.00 0.00 0.00 98 978.0
20260504215936 80 0 0.0 0.0 0.00 0.00 0.00 97 978.0
20260504215409 82 0 0.0 0.0 0.00 0.00 0.00 89 978.0
20260504214845 82 0 0.0 0.0 0.00 0.00 0.00 89 978.0
20260504214319 82 0 0.0 0.0 0.00 0.00 0.00 90 978.0
20260504213757 82 0 0.0 0.0 0.00 0.00 0.00 89 977.0
20260504213233 81 0 0.0 0.0 0.00 0.00 0.00 91 977.0
20260504212710 82 0 0.0 0.0 0.00 0.00 0.00 89 977.0
20260504212141 81 0 0.0 0.0 0.00 0.00 0.00 95 978.0
20260504211617 81 0 0.0 0.0 0.00 0.00 0.00 91 978.0
20260504211053 82 0 0.0 0.0 0.00 0.00 0.00 89 978.0
20260504210530 82 0 0.0 0.0 0.00 0.00 0.00 89 978.0
20260504210005 82 0 0.0 0.0 0.00 0.00 0.00 91 978.0
20260504205441 82 0 0.0 0.0 0.00 0.00 0.00 90 978.0
20260504204918 80 0 0.0 0.0 0.00 0.00 0.00 96 978.0
20260504204352 81 0 0.0 0.0 0.00 0.00 0.00 94 978.0
20260504203829 81 0 0.0 0.0 0.00 0.00 0.00 95 978.0
20260504203303 81 0 0.0 0.0 0.00 0.00 0.00 93 978.0
20260504202742 81 0 0.0 0.0 0.00 0.00 0.00 93 978.0
20260504202214 82 0 0.0 0.0 0.00 0.00 0.00 91 978.0
20260504201652 81 0 0.0 0.0 0.00 0.00 0.00 94 978.0
20260504201127 82 0 0.0 0.0 0.00 0.00 0.00 92 978.0
20260504200602 79 0 0.0 0.0 0.00 0.00 0.00 99 978.0
20260504200038 79 0 0.0 0.0 0.00 0.00 0.00 99 978.0
20260504195526 80 0 0.0 0.0 0.00 0.00 0.00 97 97.1
20260504195515 80 0 0.0 0.0 0.00 0.00 0.00 97 978.0
20260504194954 80 0 0.0 0.0 0.00 0.00 0.00 97 978.0
20260504194428 81 0 0.0 0.0 0.00 0.00 0.00 95 979.0
20260504193904 80 0 0.0 0.0 0.00 0.00 0.00 98 979.0
20260504193340 79 0 0.0 0.0 0.00 0.00 0.00 99 979.0
20260504192818 81 0 0.0 0.0 0.00 0.00 0.00 95 979.0
20260504192254 80 0 0.0 0.0 0.00 0.00 0.00 96 979.0
20260504191731 81 0 0.0 0.0 0.00 0.00 0.00 93 979.0
20260504191206 82 0 0.0 0.0 0.00 0.00 0.00 89 979.0
20260504190644 82 0 0.0 0.0 0.00 0.00 0.00 89 979.0
20260504190120 82 0 0.0 0.0 0.00 0.00 0.00 92 979.0
20260504185556 82 0 0.0 0.0 0.00 0.00 0.00 92 979.0
20260504185033 82 0 0.0 0.0 0.00 0.00 0.00 91 979.0
20260504184509 82 0 0.0 0.0 0.00 0.00 0.00 93 979.0
20260504183945 83 0 0.0 0.0 0.00 0.00 0.00 89 979.0
20260504183423 83 0 0.0 0.0 0.00 0.00 0.00 90 979.0
20260504182859 81 0 0.0 0.0 0.00 0.00 0.00 97 980.0
20260504182337 81 0 0.0 0.0 0.00 0.00 0.00 99 980.0
20260504181814 80 0 0.0 0.0 0.00 0.00 0.00 99 980.0
20260504181251 80 0 0.0 0.0 0.00 0.00 0.00 99 980.0
20260504180727 81 0 0.0 0.0 0.00 0.00 0.00 98 980.0
20260504180204 80 0 0.0 0.0 0.00 0.00 0.00 99 980.0
20260504175641 81 0 0.0 0.0 0.00 0.00 0.00 98 980.0
20260504175121 81 0 0.0 0.0 0.00 0.00 0.00 98 980.0
20260504174555 83 0 0.0 0.0 0.00 0.00 0.00 93 980.0
20260504174031 84 0 0.0 0.0 0.00 0.00 0.00 87 980.0
20260504173509 83 0 0.0 0.0 0.00 0.00 0.00 88 980.0
20260504172945 85 0 0.0 0.0 0.00 0.00 0.00 83 980.0
20260504172423 83 0 0.0 0.0 0.00 0.00 0.00 88 980.0
20260504171900 84 0 0.0 0.0 0.00 0.00 0.00 85 980.0
20260504171336 84 0 0.0 0.0 0.00 0.00 0.00 84 980.0
20260504170812 83 0 0.0 0.0 0.00 0.00 0.00 90 980.0
20260504170249 83 0 0.0 0.0 0.00 0.00 0.00 89 980.0
20260504160328 83 0 0.0 0.0 0.00 0.00 0.00 91 980.0
20260504150929 84 0 0.0 0.0 0.00 0.00 0.00 93 979.0
20260504150406 85 0 0.0 0.0 0.00 0.00 0.00 89 979.0
20260504141013 85 0 0.0 0.0 0.00 0.00 0.00 86 979.0
20260504140533 85 0 0.0 0.0 0.00 0.00 0.00 84 979.0
20260504140449 85 0 0.0 0.0 0.00 0.00 0.00 84 979.0
20260504140117 85 0 0.0 0.0 0.00 0.00 0.00 84 979.0
20260504140106 86 0 0.0 0.0 0.00 0.00 0.00 82 979.0
20260504130806 85 0 0.0 0.0 0.00 0.00 0.00 80 977.0
20260504130528 86 0 0.0 0.0 0.00 0.00 0.00 80 977.0
20260504110643 87 0 0.0 0.0 0.00 0.00 0.00 72 976.0
20260504110234 87 0 0.0 0.0 0.00 0.00 0.00 71 976.0
20260504110121 87 0 0.0 0.0 0.00 0.00 0.00 71 976.0
20260504100208 86 0 0.0 0.0 0.00 0.00 0.00 81 976.0
20260504081947 89 0 0.0 0.0 0.00 0.00 0.00 62 976.0
20260504081424 90 0 0.0 0.0 0.00 0.00 0.00 60 976.0
20260504080900 90 0 0.0 0.0 0.00 0.00 0.00 58 976.0
20260504080338 91 0 0.0 0.0 0.00 0.00 0.00 54 976.0
20260504050552 99 0 0.0 0.0 0.00 0.00 0.00 52 979.0
20260504045949 98 0 0.0 0.0 0.00 0.00 0.00 53 979.0
20260504045426 97 0 0.0 0.0 0.00 0.00 0.00 52 979.0
20260504044904 98 0 0.0 0.0 0.00 0.00 0.00 53 979.0
20260504044342 99 0 0.0 0.0 0.00 0.00 0.00 52 979.0
20260504043818 98 0 0.0 0.0 0.00 0.00 0.00 53 979.0
20260504043256 98 0 0.0 0.0 0.00 0.00 0.00 52 979.0
20260504042734 98 0 0.0 0.0 0.00 0.00 0.00 52 979.0
20260504042210 97 0 0.0 0.0 0.00 0.00 0.00 53 979.0
20260504041657 97 0 0.0 0.0 0.00 0.00 0.00 52 979.0
20260504041648 97 0 0.0 0.0 0.00 0.00 0.00 52 979.0
20260504041126 97 0 0.0 0.0 0.00 0.00 0.00 52 979.0
20260504040604 98 0 0.0 0.0 0.00 0.00 0.00 979.0
20260504040041 97 0 0.0 0.0 0.00 0.00 0.00 53 979.0
20260504035518 97 0 0.0 0.0 0.00 0.00 0.00 54 979.0
20260504034955 97 0 0.0 0.0 0.00 0.00 0.00 54 980.0
20260504034433 98 0 0.0 0.0 0.00 0.00 0.00 54 980.0
20260504033911 97 0 0.0 0.0 0.00 0.00 0.00 53 979.0
20260504033346 98 0 0.0 0.0 0.00 0.00 0.00 52 979.0
20260504032824 98 0 0.0 0.0 0.00 0.00 0.00 52 980.0
20260504032259 98 0 0.0 0.0 0.00 0.00 0.00 53 980.0
20260504031737 98 0 0.0 0.0 0.00 0.00 0.00 55 980.0
20260504031212 96 0 0.0 0.0 0.00 0.00 0.00 57 980.0
20260504030649 96 0 0.0 0.0 0.00 0.00 0.00 56 980.0
20260504030126 96 0 0.0 0.0 0.00 0.00 0.00 56 980.0
20260504025604 97 0 0.0 0.0 0.00 0.00 0.00 56 980.0
20260504025040 96 0 0.0 0.0 0.00 0.00 0.00 56 980.0
20260504024519 97 0 0.0 0.0 0.00 0.00 0.00 55 980.0
20260504023955 97 0 0.0 0.0 0.00 0.00 0.00 55 980.0
20260504023432 98 0 0.0 0.0 0.00 0.00 0.00 53 980.0
20260504022917 98 0 0.0 0.0 0.00 0.00 0.00 45 980.0
20260504022908 98 0 0.0 0.0 0.00 0.00 0.00 45 980.0
20260504022347 98 0 0.0 0.0 0.00 0.00 0.00 56 980.0
20260504021821 97 0 0.0 0.0 0.00 0.00 0.00 57 980.0
20260504021259 97 0 0.0 0.0 0.00 0.00 0.00 58 980.0
20260504020736 96 0 0.0 0.0 0.00 0.00 0.00 59 980.0
20260504020216 96 0 0.0 0.0 0.00 0.00 0.00 59 980.0
20260504015652 95 0 0.0 0.0 0.00 0.00 0.00 61 980.0
20260504015130 95 0 0.0 0.0 0.00 0.00 0.00 62 980.0
20260504014604 96 0 0.0 0.0 0.00 0.00 0.00 61 980.0